BEIDOU-2 G8

Last updated on Fri Dec 19 2025 00:02:52 GMT+0000 (Coordinated Universal Time)

1 44231U 19027A 25352.65396855 -.00000223 00000+0 00000+0 0 9993 2 44231 1.6761 74.7645 0008207 258.5961 133.9994 1.00276530 24270
UTC large
Height (km)
Speed (km/s)
/
Latitude / Longitude
Inclination (degrees)
Orbital Period (minutes)
Azimuth
Elevation
Range (km)
Doppler Factor

Next 0 passes for location: London (51.5072 / 0.1276)

Sorry there are no passes over London.